TimeCST,TemperatureF,Dew PointF,Humidity,Sea Level PressureIn,VisibilityMPH,Wind Direction,Wind SpeedMPH,Gust SpeedMPH,PrecipitationIn,Events,Conditions,WindDirDegrees,DateUTC
12:53 AM,28.9,25.0,85,30.09,10.0,Calm,Calm,-,N/A,,Clear,0,2013-02-23 06:53:00
1:53 AM,28.0,24.1,85,30.09,10.0,WNW,3.5,-,N/A,,Clear,290,2013-02-23 07:53:00
2:53 AM,28.0,23.0,81,30.08,10.0,NW,3.5,-,N/A,,Clear,310,2013-02-23 08:53:00
3:53 AM,28.0,21.9,78,30.07,10.0,NW,6.9,-,N/A,,Clear,320,2013-02-23 09:53:00
4:53 AM,27.0,21.9,81,30.06,10.0,North,5.8,-,N/A,,Clear,360,2013-02-23 10:53:00
5:53 AM,26.1,21.0,81,30.07,10.0,North,4.6,-,N/A,,Clear,10,2013-02-23 11:53:00
6:53 AM,26.1,19.9,78,30.07,10.0,North,3.5,-,N/A,,Clear,360,2013-02-23 12:53:00
7:53 AM,28.9,19.9,69,30.08,10.0,NNE,3.5,-,N/A,,Clear,20,2013-02-23 13:53:00
8:53 AM,30.9,21.0,67,30.07,10.0,Calm,Calm,-,N/A,,Clear,0,2013-02-23 14:53:00
9:53 AM,33.1,21.9,64,30.06,10.0,Variable,3.5,-,N/A,,Clear,0,2013-02-23 15:53:00
10:53 AM,35.1,21.9,59,30.08,10.0,Calm,Calm,-,N/A,,Clear,0,2013-02-23 16:53:00
12:53 PM,39.0,26.1,60,30.03,10.0,SSW,4.6,-,N/A,,Clear,200,2013-02-23 18:53:00
1:53 PM,39.9,26.1,58,29.99,10.0,West,5.8,-,N/A,,Clear,260,2013-02-23 19:53:00
2:53 PM,41.0,26.1,55,30.00,10.0,SSE,3.5,-,N/A,,Clear,160,2013-02-23 20:53:00
3:53 PM,43.0,27.0,53,30.00,10.0,Calm,Calm,-,N/A,,Clear,0,2013-02-23 21:53:00
4:53 PM,41.0,26.1,55,29.99,10.0,Calm,Calm,-,N/A,,Clear,0,2013-02-23 22:53:00
5:53 PM,41.0,26.1,55,30.01,10.0,Calm,Calm,-,N/A,,Clear,0,2013-02-23 23:53:00
6:53 PM,36.0,27.0,70,30.02,10.0,ENE,3.5,-,N/A,,Clear,70,2013-02-24 00:53:00
7:53 PM,34.0,28.9,82,30.03,10.0,Calm,Calm,-,N/A,,Clear,0,2013-02-24 01:53:00
8:53 PM,34.0,27.0,75,30.04,10.0,Calm,Calm,-,N/A,,Clear,0,2013-02-24 02:53:00
9:53 PM,30.9,27.0,85,30.04,10.0,Calm,Calm,-,N/A,,Clear,0,2013-02-24 03:53:00
10:53 PM,28.9,27.0,92,30.04,7.0,Calm,Calm,-,N/A,,Clear,0,2013-02-24 04:53:00
11:53 PM,28.9,26.1,89,30.04,8.0,Calm,Calm,-,N/A,,Clear,0,2013-02-24 05:53:00